Location: Astronomy Club of Akron Observatory
(40.9700°N, 81.5606°W)
Time: 15:20:50
(UTC-04:00)

Cosmos 1441 Rocket - Visible Passes

Search period start: 22 July 2014 00:00
Search period end: 01 August 2014 00:00
Orbit: 510 x 557 km, 81.1° (Epoch: 21 July)

Date Brightness Start Highest point End Pass type
(mag) Time Alt. Az. Time Alt. Az. Time Alt. Az.
22 Jul 4.6 02:33:17 36° ENE 02:33:17 36° ENE 02:36:13 10° NNE visible
22 Jul 5.4 04:08:40 14° WNW 04:08:51 14° WNW 04:11:04 10° NW visible
23 Jul 4.8 02:24:05 33° NE 02:24:05 33° NE 02:26:48 10° NNE visible
23 Jul 5.5 03:59:28 15° WNW 03:59:28 15° WNW 04:01:43 10° NW visible
24 Jul 5.0 02:14:52 30° NE 02:14:52 30° NE 02:17:22 10° NNE visible
24 Jul 5.5 03:50:15 15° WNW 03:50:15 15° WNW 03:52:22 10° NNW visible
25 Jul 5.1 02:05:38 28° NE 02:05:38 28° NE 02:07:57 10° NNE visible
25 Jul 5.5 03:41:01 15° WNW 03:41:01 15° WNW 03:43:00 10° NNW visible
26 Jul 5.3 01:56:23 26° NE 01:56:23 26° NE 01:58:31 10° NNE visible
26 Jul 5.6 03:31:46 15° WNW 03:31:46 15° WNW 03:33:38 10° NNW visible
27 Jul 5.4 01:47:07 24° NE 01:47:07 24° NE 01:49:05 10° NNE visible
27 Jul 5.6 03:22:30 15° NW 03:22:30 15° NW 03:24:16 10° NNW visible
28 Jul 5.5 01:37:50 23° NE 01:37:50 23° NE 01:39:39 10° NNE visible
28 Jul 5.7 03:13:13 15° NW 03:13:13 15° NW 03:14:53 10° NNW visible
29 Jul 5.6 01:28:33 21° NE 01:28:33 21° NE 01:30:12 10° NNE visible
29 Jul 5.7 03:03:55 15° NW 03:03:55 15° NW 03:05:31 10° NNW visible
30 Jul 5.6 01:19:14 20° NE 01:19:14 20° NE 01:20:46 10° NNE visible
30 Jul 5.8 02:54:37 15° NW 02:54:37 15° NW 02:56:07 10° NNW visible
31 Jul 5.7 01:09:55 19° NE 01:09:55 19° NE 01:11:19 10° NNE visible
31 Jul 5.8 02:45:18 15° NW 02:45:18 15° NW 02:46:44 10° NNW visible
